GW3861 Weather Reports


Display with metric or nautical units.
time (UTC)temp
F
wind
direction
speed
MPH
gust
MPH
rain 1hr
in
rain 24hr
in
rain mn
in
humidity
%
barometer
mb
20260906021554 84 271 0.0 2.0 0.00 0.00 0.00 63 1011.6
20260906020052 83 58 1.0 4.0 0.00 0.00 0.00 65 1011.4
20260906014548 82 0 0.0 0.0 0.00 0.00 0.00 64 1010.6
20260906013102 83 0 0.0 1.0 0.00 0.00 0.00 63 1010.9
20260906011555 84 26 0.0 2.0 0.00 0.00 0.00 62 1011.2
20260906010056 84 0 0.0 2.0 0.00 0.00 0.00 62 1010.8
20260906004555 85 355 0.0 2.0 0.00 0.00 0.00 60 1010.9
20260906003055 86 53 0.0 3.0 0.00 0.00 0.00 57 1011.2
20260906001552 88 193 0.0 11.0 0.00 0.00 0.00 57 1011.2
20260906000049 91 76 3.0 12.0 0.00 0.00 0.00 57 1011.1
20260905234548 94 0 0.0 1.0 0.00 0.00 0.00 53 1010.7
20260905233100 94 326 0.0 2.0 0.00 0.00 0.00 51 1010.4
20260905231552 95 326 0.0 3.0 0.00 0.00 0.00 48 1010.3
20260905230105 95 271 2.0 4.0 0.00 0.00 0.00 48 1010.2
20260905224615 96 244 1.0 3.0 0.00 0.00 0.00 46 1010.2
20260905223102 98 309 2.0 6.0 0.00 0.00 0.00 45 1010.5
20260905221549 98 346 2.0 6.0 0.00 0.00 0.00 43 1010.3
20260905220059 98 248 4.0 6.0 0.00 0.00 0.00 43 1010.3
20260905214555 98 259 4.0 8.0 0.00 0.00 0.00 43 1010.3
20260905213105 99 274 2.0 6.0 0.00 0.00 0.00 42 1010.3
20260905211557 98 252 4.0 9.0 0.00 0.00 0.00 44 1010.5
20260905210104 98 239 1.0 8.0 0.00 0.00 0.00 44 1010.6
20260905204552 99 287 3.0 9.0 0.00 0.00 0.00 46 1010.8
20260905203102 98 258 3.0 9.0 0.00 0.00 0.00 45 1011.1
20260905201555 98 333 1.0 4.0 0.00 0.00 0.00 48 1011.2
20260905200055 99 281 3.0 8.0 0.00 0.00 0.00 48 1011.5
20260905194552 98 272 1.0 7.0 0.00 0.00 0.00 46 1011.9
20260905193046 98 279 2.0 6.0 0.00 0.00 0.00 46 1011.8
20260905191602 98 307 2.0 8.0 0.00 0.00 0.00 47 1012.1
20260905184600 96 132 2.0 8.0 0.00 0.00 0.00 50 1012.4
20260905183048 96 217 2.0 7.0 0.00 0.00 0.00 50 1012.9
20260905181556 96 258 3.0 7.0 0.00 0.00 0.00 50 1013.1
20260905180103 96 332 2.0 6.0 0.00 0.00 0.00 54 1013.2
20260905174549 94 248 2.0 9.0 0.00 0.00 0.00 56 1013.5
20260905173114 95 317 1.0 4.0 0.00 0.00 0.00 55 1013.5
20260905171554 94 298 1.0 4.0 0.00 0.00 0.00 56 1013.6
20260905170110 93 0 1.0 4.0 0.00 0.00 0.00 61 1013.8
20260905164553 92 51 1.0 4.0 0.00 0.00 0.00 60 1013.9
20260905163103 92 319 1.0 3.0 0.00 0.00 0.00 60 1014.1
20260905161606 90 322 1.0 4.0 0.00 0.00 0.00 62 1014.4
20260905160053 90 302 1.0 4.0 0.00 0.00 0.00 66 1014.6
20260905154610 89 290 1.0 3.0 0.00 0.00 0.00 68 1014.6
20260905153057 87 298 1.0 4.0 0.00 0.00 0.00 73 1014.8
20260905151555 85 0 0.0 2.0 0.00 0.00 0.00 76 1014.7
20260905150052 83 261 1.0 2.0 0.00 0.00 0.00 79 1014.8
20260905144547 82 308 3.0 7.0 0.00 0.00 0.00 77 1014.9
20260905143100 82 246 0.0 3.0 0.00 0.00 0.00 79 1014.9
20260905141554 82 0 0.0 2.0 0.00 0.00 0.00 81 1014.9
20260905140054 80 0 0.0 2.0 0.00 0.00 0.00 83 1014.9
20260905134552 80 109 0.0 2.0 0.00 0.00 0.00 83 1014.8
20260905133102 80 0 0.0 1.0 0.00 0.00 0.00 84 1015.0
20260905131554 79 0 0.0 0.0 0.00 0.00 0.00 85 1015.1
20260905130055 79 0 0.0 2.0 0.00 0.00 0.00 85 1014.9
20260905124555 79 0 0.0 1.0 0.00 0.00 0.00 86 1015.0
20260905123107 78 0 0.0 0.0 0.00 0.00 0.00 88 1015.0
20260905121556 76 0 0.0 0.0 0.00 0.00 0.00 91 1014.7
20260905120058 75 0 0.0 1.0 0.00 0.00 0.00 92 1014.6
20260905114558 75 0 0.0 1.0 0.00 0.00 0.00 93 1014.6
20260905113059 74 0 0.0 1.0 0.00 0.00 0.00 93 1014.5
20260905111555 74 0 0.0 0.0 0.00 0.00 0.00 93 1014.0
20260905110054 74 0 0.0 0.0 0.00 0.00 0.00 93 1013.8
20260905104553 74 0 0.0 1.0 0.00 0.00 0.00 92 1013.5
20260905103101 74 0 0.0 0.0 0.00 0.00 0.00 92 1013.6
20260905101605 74 0 0.0 0.0 0.00 0.00 0.00 92 1013.6
20260905100120 74 0 0.0 0.0 0.00 0.00 0.00 92 1013.6
20260905094552 75 0 0.0 1.0 0.00 0.00 0.00 91 1013.5
20260905093048 75 0 0.0 0.0 0.00 0.00 0.00 90 1013.3
20260905091601 75 0 0.0 1.0 0.00 0.00 0.00 90 1013.2
20260905090056 75 0 0.0 0.0 0.00 0.00 0.00 90 1013.2
20260905084553 75 0 0.0 1.0 0.00 0.00 0.00 90 1013.1
20260905083106 76 0 0.0 0.0 0.00 0.00 0.00 89 1013.3
20260905081554 76 0 0.0 0.0 0.00 0.00 0.00 89 1013.2
20260905080055 76 0 0.0 0.0 0.00 0.00 0.00 88 1013.4
20260905074553 76 0 0.0 2.0 0.00 0.00 0.00 89 1013.4
20260905073048 76 0 0.0 1.0 0.00 0.00 0.00 89 1013.4
20260905071557 76 0 0.0 1.0 0.00 0.00 0.00 89 1013.7
20260905070059 76 0 0.0 0.0 0.00 0.00 0.00 89 1013.7
20260905064611 76 0 0.0 1.0 0.00 0.00 0.00 88 1013.8
20260905063054 76 0 0.0 0.0 0.00 0.00 0.00 87 1013.8
20260905061547 77 0 0.0 1.0 0.00 0.00 0.00 86 1013.8
20260905060054 77 0 0.0 0.0 0.00 0.00 0.00 85 1013.8
20260905054653 77 0 0.0 1.0 0.00 0.00 0.00 85 1013.7
20260905053054 78 0 0.0 2.0 0.00 0.00 0.00 85 1013.6
20260905051550 78 0 0.0 1.0 0.00 0.00 0.00 84 1013.6
20260905050048 78 0 0.0 1.0 0.00 0.00 0.00 83 1013.5
20260905044606 79 0 0.0 1.0 0.00 0.00 0.00 82 1013.5
20260905043101 79 60 1.0 2.0 0.00 0.00 0.00 83 1013.7
20260905041551 80 79 0.0 2.0 0.00 0.00 0.00 81 1013.7
20260905040107 80 0 0.0 1.0 0.00 0.00 0.00 81 1013.8
20260905034602 80 0 0.0 1.0 0.00 0.00 0.00 80 1014.0
20260905033049 81 0 0.0 1.0 0.00 0.00 0.00 78 1014.1
20260905031556 81 0 0.0 1.0 0.00 0.00 0.00 76 1014.1
20260905030055 82 0 0.0 2.0 0.00 0.00 0.00 76 1014.3
20260905024557 82 0 0.0 0.0 0.00 0.00 0.00 75 1014.1
20260905023057 83 0 0.0 2.0 0.00 0.00 0.00 74 1014.4